Vertical_Velocity
-1 -1 2 -0 1 -4 -0 2 0 -1 -1 -1 -1 -2 0 1 -6 2 -1 -0 -3 -1 -3 3 3 -10 2 1 1 -3 6 -7 -14 2 -22 15 1 -1 -3 -3 6 1 -1 2 0 -0 -0
-1 -2 -3 -3 -4 -3 5 -4 -1 -2 -2 2 -1 -2 1 -3 -1 -1 -0 -1 -1 -0 -1 1 5 1 2 4 -7 -3 -2 -1 7 -13 19 4 -9 -16 1 -3 -3 -5 -2 -1 -2 2 0
0 -2 0 -1 3 3 -3 -3 -4 0 1 -2 1 -1 -1 -1 -0 0 0 -2 -1 -2 -1 3 4 -1 4 0 -0 9 -10 -18 3 0 -12 0 14 11 -3 2 -3 -1 -2 1 -0 0 -1
-2 2 -0 -0 -0 -2 -4 -2 0 -1 -2 -3 -0 -2 -1 -1 2 1 1 -2 -0 -4 1 -1 1 -2 2 -1 -0 6 19 1 -8 14 7 0 -6 5 -7 4 2 -3 -2 1 -5 0 -1
-2 2 0 -2 -3 -2 -2 2 -2 -2 -1 1 0 -1 -1 -3 1 -0 1 -5 -2 -2 -3 4 4 -7 5 -1 15 -1 -7 8 11 -2 -6 0 16 -3 10 -2 -0 3 -2 1 2 -1 -1
-2 -1 -3 -1 -1 -0 -1 -1 -4 1 2 -2 3 -2 1 -1 -2 -2 -2 -3 -2 -1 -2 0 7 -5 -4 -6 -5 11 10 -9 -7 3 6 6 9 -1 0 3 -10 -3 2 4 -2 -3 -1
-4 -3 0 0 -0 0 -1 -1 2 1 -1 -0 0 -1 2 2 -0 -2 -16 -1 -4 -4 -5 1 -4 1 -6 -6 12 -7 2 -14 -2 8 -1 1 -3 -4 -3 -3 -2 -3 -2 -1 2 2 -6
-0 -2 -0 -0 -0 -1 -1 2 -0 -2 -2 1 -0 -2 0 2 -1 -3 3 -9 -4 -1 -8 -0 6 3 -0 8 -1 -2 -9 5 -2 1 3 7 -2 -1 -1 -1 -3 0 -1 1 1 2 -8
-3 -1 0 -2 1 -1 -1 2 2 -2 -1 2 -3 -2 -3 3 -2 -1 2 -2 -1 -1 2 -2 8 -1 -2 10 2 3 6 -1 2 1 0 -14 -2 -1 -5 1 -2 1 -6 -0 -8 1 -1
-0 -1 -1 -1 -1 -3 -0 -1 1 -1 0 -0 -0 -2 -3 -2 2 -3 -1 2 0 1 -3 -10 -8 -4 -11 8 2 -4 4 2 -1 -5 -2 -1 2 -3 0 -0 -4 -0 -2 -2 -1 -4 -4
-3 -1 -1 -0 1 -2 0 3 -0 -3 -1 -0 3 -1 0 -7 -1 -1 2 1 -1 4 -13 -27 -10 -9 11 -5 0 3 -2 -12 2 2 -12 0 1 1 -1 -2 -2 -4 -4 -4 -2 -1 -5
-1 -1 1 1 -1 -1 -1 0 2 -0 -1 1 0 -0 -3 -4 5 4 2 -2 1 -24 -9 -10 -1 -4 -11 -7 -2 1 1 -2 2 -2 0 -6 1 -3 1 1 0 0 -4 -2 -2 -2 -4
0 0 2 -1 -2 -2 -0 0 -1 0 -1 -1 0 1 -3 1 -3 4 2 -3 -19 -10 -4 -12 -2 -1 0 -2 -6 -3 -2 -7 -1 -0 2 9 4 -0 -11 -6 -6 -2 -3 -1 -3 -5 -6
-1 -0 -1 -1 -0 -1 1 3 -3 1 -1 -2 -0 1 9 4 5 -2 -1 -17 -18 1 1 -4 1 -3 1 0 -1 1 -1 -1 -6 -4 -1 -2 12 -1 2 -4 -7 -1 -5 -8 -5 -3 -4
-1 -0 -0 -1 -1 -1 1 2 -1 -1 -0 -1 -2 -7 1 -5 -4 -0 -13 -13 7 2 5 2 -7 -3 -4 -4 5 -4 -1 1 3 1 0 -2 2 -2 -0 -0 -7 -6 -1 -6 -5 -1 -4
-1 -2 -2 -0 -1 -1 -1 -2 1 -2 -4 -1 -4 -2 -2 3 2 -11 -15 -1 -0 2 1 -3 -0 0 1 -2 -6 -5 -2 4 -1 1 3 1 -2 -1 3 -3 -4 -4 -3 -7 -4 -2 1
-2 -2 -3 -2 -1 -3 -1 -0 -1 2 -3 0 -8 -4 -7 -0 3 -26 -4 2 0 2 0 -2 1 -1 -1 1 -0 1 1 3 -1 -4 1 2 -6 1 3 1 -2 -2 0 -2 -5 -4 -5
-0 -2 -1 -3 -2 -1 -5 -7 -2 -1 -2 -1 -10 -9 0 -2 -20 1 -1 2 1 -0 -4 0 -0 0 1 -0 -1 -1 -1 -1 1 3 0 3 2 -0 -2 -1 0 -1 -1 -2 -6 -3 -1
-1 -1 -3 -3 -4 -2 -0 -5 -7 0 -8 -4 -6 0 2 -9 -6 -2 -2 -1 0 -4 1 -1 -0 1 -0 1 -4 -1 0 4 0 -1 2 0 1 -0 -3 -11 -6 1 -1 -1 -1 -2 -2
-2 -2 -2 -3 -3 -5 -4 -4 -4 -6 0 -3 -2 -9 -6 -12 -1 -2 -1 0 -2 0 -0 0 1 -1 -2 -2 -2 1 -1 -2 2 2 0 1 0 1 -6 -6 -5 -0 1 0 -3 -1 -2
-3 -3 -4 -2 -5 -3 -4 -5 -6 -8 -4 -1 -2 -1 -0 -5 -7 -1 -3 -1 -1 -3 -0 -1 -5 0 2 -2 -2 -1 -1 -4 -1 -1 -2 -2 0 0 -1 -1 1 -2 -1 0 -0 -2 -4
-4 -3 -0 -2 -5 -3 -3 -7 -9 -6 -2 -26 -4 -3 -1 0 1 -3 -2 -1 1 -4 -3 -3 -3 -1 -0 -2 -2 -2 2 -0 3 -9 -0 -2 -0 0 -2 -2 -0 -1 -0 -0 -0 0 1
-2 -4 -4 -3 -7 -2 -8 -8 -4 -7 -4 -4 -2 -1 -1 1 -1 -5 -2 -2 -2 1 -3 2 2 -1 -1 -0 4 -1 1 -0 -0 3 0 -1 0 -1 -2 0 -1 -5 2 0 1 -0 2
-1 -1 -3 -4 -3 -1 -4 -8 -7 -6 -12 -3 -1 -1 -3 -3 -2 -3 0 1 -0 -0 -3 -1 0 -2 -3 2 -1 -0 0 0 1 -2 0 -1 -0 0 -0 -0 2 4 0 1 -3 2 0
-2 -2 -0 -1 -1 -1 -5 -3 -6 -4 -5 -6 -3 -1 -3 -2 2 -0 -1 0 0 -0 -1 0 -1 3 2 -0 0 -3 -2 -7 -3 -0 1 -1 -0 -1 -3 -0 1 4 -1 -1 -1 3 1
-2 -2 0 -2 -2 1 -1 -4 -6 -7 -1 -1 -2 -3 -1 -3 -5 -1 -0 2 -1 -0 -6 -1 2 -1 0 1 -2 -2 -2 -3 -5 -7 -1 0 -1 -3 -1 -0 -4 -1 1 -0 0 -0 1
-1 -4 -2 4 0 -3 -0 -1 -4 -6 -6 -5 -1 -1 -0 -2 -1 1 -2 -3 1 1 -1 -0 -5 -9 -0 -1 -2 -2 -2 -3 -3 -0 -2 -2 -2 -2 -0 -0 -6 -1 -1 -0 -3 -7 1
-0 -1 -8 -1 6 -1 -2 -2 -1 -5 -6 -7 2 -1 -2 -1 -0 0 -0 -2 -1 -0 -3 -1 -8 -8 -4 -6 -3 -2 -1 -3 -3 -3 -3 -3 -3 -1 -2 0 -6 -1 0 2 0 2 0
3 2 -1 -1 -3 2 -1 -5 1 1 -2 -7 -6 1 -2 -3 -1 0 -0 2 -2 -2 -1 1 -2 -1 1 -3 -3 -2 -2 -2 -2 -4 -3 -9 -8 -5 -4 -5 -0 -0 -2 -2 -1 -2 -0
Height
1513 1508 1504 1499 1494 1489 1484 1481 1477 1472 1469 1464 1459 1454 1449 1444 1439 1434 1430 1424 1420 1414 1412 1411 1410 1409 1411 1411 1410 1407 1405 1407 1400 1408 1416 1412 1420 1431 1434 1438 1450 1456 1457 1459 1460 1461 1462
1514 1509 1504 1499 1493 1488 1485 1479 1474 1471 1467 1463 1458 1452 1447 1441 1436 1431 1427 1421 1416 1413 1410 1408 1408 1410 1411 1410 1407 1407 1403 1401 1405 1403 1400 1408 1416 1427 1435 1437 1446 1450 1455 1457 1460 1461 1462
1515 1510 1504 1499 1494 1488 1484 1479 1474 1470 1465 1461 1456 1450 1444 1438 1433 1427 1423 1418 1415 1412 1409 1408 1409 1409 1409 1409 1406 1405 1405 1401 1397 1401 1398 1407 1420 1427 1432 1438 1446 1449 1458 1459 1459 1460 1461
1516 1511 1504 1499 1493 1489 1484 1478 1472 1467 1463 1457 1452 1447 1441 1436 1431 1426 1420 1417 1415 1412 1410 1410 1410 1410 1409 1407 1406 1404 1403 1400 1397 1400 1404 1406 1415 1426 1431 1433 1445 1451 1457 1465 1459 1458 1460
1516 1510 1504 1500 1494 1488 1482 1476 1471 1464 1459 1453 1448 1444 1439 1434 1429 1424 1419 1416 1414 1412 1411 1411 1412 1411 1411 1408 1404 1404 1396 1386 1391 1394 1393 1403 1416 1421 1427 1432 1451 1452 1460 1464 1462 1456 1459
1516 1511 1505 1499 1493 1487 1481 1475 1468 1462 1458 1452 1447 1442 1437 1432 1427 1423 1418 1416 1415 1413 1411 1411 1414 1417 1413 1410 1402 1399 1399 1397 1394 1395 1403 1410 1411 1416 1424 1428 1441 1450 1454 1455 1461 1459 1459
1517 1512 1505 1499 1492 1486 1479 1473 1467 1463 1456 1449 1446 1442 1437 1431 1426 1422 1417 1415 1417 1416 1413 1416 1419 1419 1416 1410 1403 1398 1396 1393 1397 1395 1381 1402 1409 1416 1422 1425 1433 1439 1449 1455 1456 1455 1462
1518 1512 1505 1498 1491 1485 1479 1473 1467 1461 1454 1448 1444 1441 1436 1430 1427 1423 1421 1419 1422 1423 1419 1415 1417 1418 1415 1409 1406 1400 1399 1397 1388 1377 1391 1404 1412 1417 1421 1427 1435 1441 1451 1454 1456 1457 1463
1519 1512 1505 1498 1492 1485 1478 1472 1465 1458 1452 1447 1443 1440 1436 1430 1427 1424 1421 1422 1421 1422 1421 1415 1415 1414 1412 1413 1413 1410 1402 1395 1395 1389 1395 1401 1412 1416 1420 1431 1438 1446 1448 1452 1456 1461 1464
1520 1513 1506 1499 1492 1485 1478 1471 1464 1458 1451 1447 1443 1441 1436 1431 1428 1424 1422 1421 1420 1420 1424 1419 1414 1413 1408 1404 1405 1405 1399 1397 1399 1393 1403 1414 1414 1415 1425 1434 1439 1446 1443 1447 1455 1467 1482
1521 1515 1507 1500 1493 1486 1478 1471 1464 1458 1452 1448 1445 1441 1435 1429 1429 1424 1423 1420 1419 1421 1458 1426 1420 1415 1409 1408 1408 1405 1404 1400 1404 1404 1410 1424 1417 1422 1432 1435 1438 1441 1440 1447 1455 1466 1472
1523 1517 1510 1502 1495 1487 1480 1472 1465 1459 1453 1449 1446 1442 1437 1433 1431 1427 1422 1421 1421 1436 1461 1438 1429 1422 1411 1407 1409 1412 1411 1409 1412 1416 1418 1420 1420 1425 1431 1438 1439 1436 1445 1454 1463 1470 1490
1525 1519 1512 1505 1497 1489 1481 1473 1465 1460 1453 1449 1447 1444 1437 1435 1432 1427 1423 1422 1442 1462 1453 1451 1440 1433 1426 1425 1418 1419 1419 1422 1427 1417 1418 1423 1428 1430 1434 1442 1441 1436 1449 1479 1484 1495 1490
1528 1521 1514 1507 1499 1491 1483 1475 1467 1461 1456 1451 1449 1447 1443 1437 1435 1429 1425 1432 1464 1462 1462 1453 1449 1436 1437 1434 1430 1428 1430 1428 1430 1431 1425 1431 1450 1435 1434 1438 1446 1444 1451 1474 1490 1495 1485
1531 1524 1517 1510 1502 1494 1485 1477 1469 1463 1458 1453 1451 1449 1445 1441 1438 1433 1433 1450 1473 1471 1466 1460 1451 1452 1449 1441 1438 1427 1435 1446 1449 1449 1440 1431 1442 1440 1437 1443 1444 1446 1452 1447 1466 1472 1481
1533 1527 1521 1513 1505 1496 1487 1479 1472 1465 1461 1456 1453 1450 1448 1446 1442 1439 1441 1463 1474 1474 1468 1466 1471 1464 1475 1458 1448 1450 1451 1457 1455 1454 1452 1442 1445 1442 1439 1441 1439 1439 1440 1456 1463 1476 1475
1536 1530 1524 1517 1509 1501 1491 1482 1474 1467 1462 1459 1454 1454 1456 1450 1448 1446 1470 1477 1477 1475 1473 1472 1475 1476 1473 1468 1462 1462 1469 1464 1458 1453 1449 1446 1439 1445 1440 1446 1447 1447 1449 1451 1453 1465 1474
1539 1533 1526 1520 1513 1505 1497 1486 1477 1469 1464 1461 1459 1465 1461 1457 1454 1465 1483 1479 1480 1480 1477 1475 1473 1472 1474 1466 1468 1474 1473 1466 1464 1459 1454 1455 1450 1450 1446 1441 1445 1443 1446 1452 1466 1461 1465
1542 1536 1529 1523 1516 1509 1501 1492 1483 1474 1466 1462 1466 1469 1468 1459 1482 1488 1484 1485 1485 1481 1481 1477 1478 1476 1471 1468 1476 1468 1466 1466 1463 1463 1460 1459 1450 1453 1463 1457 1444 1445 1444 1445 1447 1454 1455
1544 1538 1533 1527 1519 1512 1505 1498 1489 1481 1472 1468 1470 1479 1475 1474 1485 1490 1492 1492 1489 1488 1486 1484 1485 1476 1473 1471 1469 1470 1471 1467 1465 1464 1461 1460 1452 1447 1449 1444 1441 1446 1443 1445 1450 1460 1455
1546 1541 1536 1530 1523 1516 1510 1503 1495 1488 1480 1475 1477 1491 1492 1498 1491 1494 1494 1501 1500 1497 1491 1488 1484 1487 1484 1485 1477 1478 1476 1472 1468 1470 1464 1463 1455 1454 1451 1447 1440 1439 1443 1447 1451 1450 1454
1548 1544 1539 1533 1528 1521 1515 1508 1502 1494 1487 1480 1487 1492 1496 1496 1495 1495 1498 1506 1504 1500 1498 1498 1497 1490 1490 1494 1495 1496 1490 1485 1483 1472 1469 1468 1460 1461 1455 1442 1435 1456 1461 1453 1452 1455 1460
1548 1545 1541 1536 1531 1524 1518 1512 1506 1500 1493 1491 1494 1496 1497 1500 1499 1503 1509 1504 1503 1499 1496 1496 1496 1496 1494 1493 1490 1488 1487 1485 1484 1483 1478 1478 1475 1466 1455 1452 1445 1460 1485 1480 1474 1483 1482
1548 1545 1542 1538 1533 1527 1522 1516 1511 1506 1502 1499 1498 1497 1498 1508 1502 1506 1503 1502 1500 1499 1501 1495 1495 1496 1492 1489 1486 1486 1484 1482 1481 1481 1480 1480 1481 1471 1458 1453 1445 1485 1486 1484 1486 1490 1490
1548 1545 1542 1539 1534 1529 1524 1520 1516 1512 1508 1504 1502 1501 1500 1507 1503 1503 1502 1501 1498 1496 1496 1494 1493 1493 1489 1486 1484 1489 1483 1486 1479 1477 1476 1474 1479 1480 1474 1475 1483 1482 1486 1486 1486 1489 1495
1546 1544 1542 1538 1535 1531 1526 1522 1519 1516 1511 1508 1504 1502 1501 1503 1506 1502 1501 1501 1504 1502 1497 1493 1492 1490 1488 1486 1493 1503 1508 1501 1493 1480 1473 1474 1475 1479 1475 1467 1471 1484 1487 1487 1486 1475 1493
1543 1542 1540 1537 1534 1531 1527 1523 1520 1517 1513 1510 1507 1504 1502 1502 1502 1502 1501 1503 1501 1500 1502 1497 1494 1490 1489 1495 1508 1509 1500 1495 1500 1497 1492 1487 1488 1481 1476 1483 1486 1483 1486 1487 1480 1481 1490
1540 1538 1538 1536 1533 1530 1527 1524 1520 1517 1514 1511 1508 1504 1504 1502 1501 1500 1500 1499 1500 1501 1505 1497 1498 1496 1495 1506 1509 1507 1505 1500 1500 1504 1501 1500 1495 1488 1496 1480 1476 1483 1488 1486 1484 1486 1487
1536 1534 1533 1533 1532 1528 1526 1524 1519 1517 1513 1509 1506 1502 1499 1499 1501 1499 1498 1498 1499 1499 1500 1499 1500 1500 1501 1504 1505 1503 1499 1504 1507 1506 1498 1505 1495 1493 1487 1480 1482 1483 1483 1484 1485 1486 1486